M I D A S
Marine Information and Data Acquisition System
Tripno 921 of the Zeeleeuw from 2005-06-24 07:29:11 to 2005-06-24 13:46:21
Back to CruiseResearch ActivitiesStationsMapUnderway DataData graphs

EquipmentUnitsComments
TimeDGPSUTC
LatitudeDGPSDM.mWGS84
LongitudeDGPSDM.mWGS84
SpeedMeteo Stationm/sRelative wind speed
DirectionMeteo StationdegRelative wind direction
TemperatureMeteo Stationdeg CelciusAir temperature
PressureMeteo StationPaAtmospheric pressure
HumidityMeteo Station%Relative humidity
Missing or incorrect values are displayed as -999
Metereological data collected by the RV Zeeleeuw from 2005-06-24 07:30:35 to 2005-06-24 15:58:47
                                                                                    Next 1000 lines
Time Latitude Longitude Speed Direction Temperature Pressure Humidity
2005-06-24 07:30:45 51°13.598 2°56.101 2 195 22.4 101430 61
2005-06-24 07:30:49 51°13.599 2°56.099 3.1 203 22.4 101430 61
2005-06-24 07:30:55 51°13.6 2°56.094 2.8 203 22.4 101430 61
2005-06-24 07:31:01 51°13.601 2°56.09 3.1 193 22.3 101430 62
2005-06-24 07:31:05 51°13.603 2°56.086 2.5 200 22.3 101430 62
2005-06-24 07:31:11 51°13.604 2°56.081 2.6 196 22.3 101430 62
2005-06-24 07:31:15 51°13.605 2°56.077 2.1 192 22.3 101430 62
2005-06-24 07:31:21 51°13.608 2°56.071 2.2 200 22.2 101430 61
2005-06-24 07:31:25 51°13.61 2°56.066 3.4 200 22.2 101430 61
2005-06-24 07:31:30 51°13.613 2°56.06 3.1 200 22.2 101430 63
2005-06-24 07:31:36 51°13.615 2°56.052 3.9 210 22.2 101430 63
2005-06-24 07:31:41 51°13.618 2°56.045 3.9 204 22.2 101430 64
2005-06-24 07:31:45 51°13.621 2°56.037 4.1 207 22.2 101430 64
2005-06-24 07:31:51 51°13.623 2°56.029 4.6 211 22.2 101430 64
2005-06-24 07:31:56 51°13.626 2°56.019 4.2 210 22.2 101430 64
2005-06-24 07:32:00 51°13.629 2°56.013 4.1 199 22.2 101430 63
2005-06-24 07:32:05 51°13.631 2°56.004 4.3 208 22.2 101430 63
2005-06-24 07:32:11 51°13.634 2°55.994 4.1 202 22.1 101440 63
2005-06-24 07:32:15 51°13.637 2°55.986 4.7 201 22.1 101440 63
2005-06-24 07:32:21 51°13.64 2°55.976 5.4 209 22.1 101430 64
2005-06-24 07:32:26 51°13.643 2°55.966 4.6 202 22.1 101430 64
2005-06-24 07:32:31 51°13.646 2°55.955 6 208 22.1 101430 63
2005-06-24 07:32:35 51°13.649 2°55.946 4.1 203 22.1 101430 63
2005-06-24 07:32:41 51°13.653 2°55.935 4.8 210 22 101430 64
2005-06-24 07:32:45 51°13.656 2°55.925 5.4 213 22 101430 64
2005-06-24 07:32:51 51°13.659 2°55.914 4.5 214 22 101430 64
2005-06-24 07:32:55 51°13.662 2°55.904 3.9 206 22 101430 64
2005-06-24 07:33:00 51°13.665 2°55.894 3.7 202 22 101440 64
2005-06-24 07:33:06 51°13.668 2°55.883 4.2 208 22 101440 64
2005-06-24 07:33:11 51°13.671 2°55.872 3.2 203 21.9 101440 63
2005-06-24 07:33:15 51°13.674 2°55.864 3.6 208 21.9 101440 63
2005-06-24 07:33:21 51°13.677 2°55.852 3.6 215 21.8 101430 64
2005-06-24 07:33:25 51°13.679 2°55.844 3.7 213 21.8 101430 64
2005-06-24 07:33:31 51°13.682 2°55.833 3.8 203 21.8 101430 64
2005-06-24 07:33:35 51°13.684 2°55.826 4 215 21.8 101430 64
2005-06-24 07:33:40 51°13.686 2°55.816 3.3 221 21.7 101430 65
2005-06-24 07:33:45 51°13.688 2°55.806 3.1 228 21.7 101430 65
2005-06-24 07:33:51 51°13.69 2°55.796 2.8 228 21.6 101430 65
2005-06-24 07:33:55 51°13.691 2°55.788 3.6 216 21.6 101430 65
2005-06-24 07:34:01 51°13.693 2°55.778 3.2 220 21.5 101430 65
2005-06-24 07:34:05 51°13.694 2°55.77 2.6 224 21.5 101430 65
2005-06-24 07:34:09 51°13.695 2°55.764 2.7 230 21.5 101430 65
2005-06-24 07:34:15 51°13.695 2°55.758 2.1 249 21.5 101430 65
2005-06-24 07:34:21 51°13.697 2°55.756 1.9 253 21.4 101430 66
2005-06-24 07:34:25 51°13.698 2°55.755 1.9 264 21.4 101430 66
2005-06-24 07:34:31 51°13.698 2°55.756 2.2 280 21.4 101430 66
2005-06-24 07:34:35 51°13.699 2°55.757 1.6 284 21.4 101430 66
2005-06-24 07:34:41 51°13.7 2°55.757 1.1 303 21.3 101430 66
2005-06-24 07:34:45 51°13.7 2°55.756 1.1 273 21.3 101430 66
2005-06-24 07:34:50 51°13.7 2°55.755 1.5 262 21.3 101430 66
2005-06-24 07:34:55 51°13.699 2°55.752 1 256 21.3 101430 66
2005-06-24 07:34:59 51°13.698 2°55.749 1 256 21.3 101420 67
2005-06-24 07:35:05 51°13.697 2°55.745 1.3 258 21.3 101420 67
2005-06-24 07:35:10 51°13.697 2°55.743 1.7 274 21.3 101420 67
2005-06-24 07:35:15 51°13.697 2°55.742 1.5 298 21.3 101420 67
2005-06-24 07:35:20 51°13.698 2°55.741 1.8 314 21.3 101430 67
2005-06-24 07:35:25 51°13.699 2°55.742 2 330 21.3 101430 67
2005-06-24 07:35:29 51°13.702 2°55.743 2.6 346 21.3 101430 67
2005-06-24 07:35:35 51°13.705 2°55.745 2.6 350 21.3 101430 67
2005-06-24 07:35:39 51°13.709 2°55.745 3 355 21.3 101430 67
2005-06-24 07:35:45 51°13.715 2°55.745 3.2 355 21.3 101430 67
2005-06-24 07:35:49 51°13.719 2°55.743 3.2 -999 21.3 101420 67
2005-06-24 07:35:54 51°13.725 2°55.74 4.1 13 21.3 101420 67
2005-06-24 07:36:00 51°13.731 2°55.735 3.6 14 21.3 101420 67
2005-06-24 07:36:05 51°13.736 2°55.731 3.4 25 21.3 101420 67
2005-06-24 07:36:09 51°13.74 2°55.728 3.2 12 21.3 101420 67
2005-06-24 07:36:15 51°13.745 2°55.722 3.3 12 21.3 101420 67
2005-06-24 07:36:20 51°13.75 2°55.716 3.8 18 21.3 101420 67
2005-06-24 07:36:25 51°13.756 2°55.71 3.6 16 21.3 101420 67
2005-06-24 07:36:30 51°13.762 2°55.703 4.1 10 21.3 101420 66
2005-06-24 07:36:35 51°13.768 2°55.696 4.5 11 21.3 101420 66
2005-06-24 07:36:40 51°13.775 2°55.689 4.6 22 21.3 101420 67
2005-06-24 07:36:45 51°13.782 2°55.682 4.6 10 21.3 101420 67
2005-06-24 07:36:50 51°13.789 2°55.676 5 12 21.2 101420 67
2005-06-24 07:36:55 51°13.797 2°55.668 4.8 15 21.2 101420 67
2005-06-24 07:36:59 51°13.803 2°55.662 5.1 14 21.2 101420 67
2005-06-24 07:37:05 51°13.813 2°55.651 5.2 15 21.2 101420 67
2005-06-24 07:37:10 51°13.821 2°55.644 5.4 12 21.2 101420 67
2005-06-24 07:37:15 51°13.829 2°55.636 5.2 16 21.2 101420 67
2005-06-24 07:37:19 51°13.836 2°55.628 5.4 10 21.1 101420 67
2005-06-24 07:37:25 51°13.846 2°55.619 5.5 8 21.1 101420 67
2005-06-24 07:37:29 51°13.853 2°55.612 5.7 7 21.1 101420 68
2005-06-24 07:37:35 51°13.863 2°55.604 5.5 11 21.1 101420 68
2005-06-24 07:37:40 51°13.874 2°55.597 5.8 7 21 101420 68
2005-06-24 07:37:45 51°13.882 2°55.591 5.6 7 21 101420 68
2005-06-24 07:37:49 51°13.891 2°55.585 6.2 6 21 101420 68
2005-06-24 07:37:55 51°13.902 2°55.578 6.2 7 21 101420 68
2005-06-24 07:37:59 51°13.911 2°55.573 5.9 8 20.9 101420 68
2005-06-24 07:38:05 51°13.924 2°55.564 6.6 13 20.9 101420 68
2005-06-24 07:38:09 51°13.932 2°55.559 6.3 9 20.9 101420 69
2005-06-24 07:38:15 51°13.944 2°55.551 6.3 11 20.9 101420 69
2005-06-24 07:38:20 51°13.956 2°55.543 6 9 20.9 101420 69
2005-06-24 07:38:25 51°13.966 2°55.536 5.7 5 20.9 101420 69
2005-06-24 07:38:30 51°13.977 2°55.53 6 11 20.8 101420 70
2005-06-24 07:38:35 51°13.987 2°55.523 6.3 11 20.8 101420 70
2005-06-24 07:38:40 51°13.999 2°55.516 6.5 15 20.8 101420 70
2005-06-24 07:38:45 51°14.01 2°55.509 5.8 5 20.8 101420 70
2005-06-24 07:38:49 51°14.019 2°55.504 5.7 7 20.8 101420 70
2005-06-24 07:38:55 51°14.032 2°55.496 5.8 5 20.8 101420 70
2005-06-24 07:39:00 51°14.042 2°55.489 6 10 20.8 101420 71
2005-06-24 07:39:05 51°14.053 2°55.482 6.1 13 20.8 101420 71
2005-06-24 07:39:10 51°14.063 2°55.476 5.8 12 20.7 101420 71
2005-06-24 07:39:15 51°14.074 2°55.469 5.7 7 20.7 101420 71
2005-06-24 07:39:20 51°14.085 2°55.462 5.4 11 20.7 101420 71
2005-06-24 07:39:25 51°14.097 2°55.454 5.4 10 20.7 101420 71
2005-06-24 07:39:30 51°14.107 2°55.446 5.4 12 20.7 101420 71
2005-06-24 07:39:35 51°14.117 2°55.438 5.1 11 20.7 101420 71
2005-06-24 07:39:40 51°14.129 2°55.429 6 8 20.6 101420 72
2005-06-24 07:39:45 51°14.14 2°55.419 5.6 10 20.6 101420 72
2005-06-24 07:39:50 51°14.15 2°55.41 5.7 13 20.6 101420 72
2005-06-24 07:39:55 51°14.161 2°55.4 5.5 11 20.6 101420 72
2005-06-24 07:40:00 51°14.172 2°55.389 5.7 10 20.6 101420 72
2005-06-24 07:40:05 51°14.184 2°55.377 5.8 11 20.6 101420 72
2005-06-24 07:40:10 51°14.194 2°55.364 5.3 13 20.5 101420 73
2005-06-24 07:40:15 51°14.204 2°55.352 5 14 20.5 101420 73
2005-06-24 07:40:19 51°14.21 2°55.344 5 12 20.5 101420 73
2005-06-24 07:40:25 51°14.222 2°55.328 4.9 14 20.5 101420 73
2005-06-24 07:40:30 51°14.229 2°55.317 5.3 14 20.5 101420 73
2005-06-24 07:40:35 51°14.237 2°55.304 4.9 14 20.5 101420 73
2005-06-24 07:40:40 51°14.245 2°55.29 4.4 14 20.4 101420 73
2005-06-24 07:40:45 51°14.252 2°55.276 4.3 17 20.4 101420 73
2005-06-24 07:40:50 51°14.259 2°55.265 4.4 15 20.4 101420 74
2005-06-24 07:40:55 51°14.266 2°55.252 4.3 17 20.4 101420 74
2005-06-24 07:41:00 51°14.273 2°55.238 4.4 17 20.4 101420 74
2005-06-24 07:41:05 51°14.28 2°55.225 4.4 19 20.4 101420 74
2005-06-24 07:41:09 51°14.286 2°55.215 4.5 20 20.3 101430 74
2005-06-24 07:41:15 51°14.294 2°55.2 4.6 14 20.3 101430 74
2005-06-24 07:41:20 51°14.302 2°55.185 4.9 18 20.4 101430 74
2005-06-24 07:41:25 51°14.31 2°55.171 4.9 20 20.4 101430 74
2005-06-24 07:41:30 51°14.318 2°55.156 4.8 17 20.3 101430 75
2005-06-24 07:41:35 51°14.325 2°55.143 5.1 18 20.3 101430 75
2005-06-24 07:41:40 51°14.335 2°55.126 5.3 15 20.3 101430 75
2005-06-24 07:41:45 51°14.344 2°55.111 5.6 16 20.3 101430 75
2005-06-24 07:41:50 51°14.352 2°55.097 5.5 16 20.3 101430 75
2005-06-24 07:41:55 51°14.361 2°55.081 5.8 19 20.3 101430 75
2005-06-24 07:42:00 51°14.37 2°55.065 6 19 20.3 101430 76
2005-06-24 07:42:05 51°14.381 2°55.046 6 15 20.3 101430 76
2005-06-24 07:42:09 51°14.389 2°55.031 6.2 17 20.3 101430 76
2005-06-24 07:42:15 51°14.401 2°55.009 6.3 16 20.3 101430 76
2005-06-24 07:42:20 51°14.411 2°54.99 6.3 18 20.3 101430 76
2005-06-24 07:42:25 51°14.421 2°54.97 6.4 16 20.3 101430 76
2005-06-24 07:42:29 51°14.429 2°54.952 6.6 15 20.2 101430 76
2005-06-24 07:42:35 51°14.44 2°54.928 6.7 14 20.2 101430 76
2005-06-24 07:42:40 51°14.45 2°54.905 6.7 13 20.2 101430 77
2005-06-24 07:42:45 51°14.461 2°54.879 6.7 12 20.2 101430 77
2005-06-24 07:42:50 51°14.469 2°54.856 7 11 20.2 101430 77
2005-06-24 07:42:55 51°14.478 2°54.831 6.8 12 20.2 101430 77
2005-06-24 07:43:00 51°14.488 2°54.803 6.7 10 20.2 101420 77
2005-06-24 07:43:05 51°14.496 2°54.776 6.5 10 20.2 101420 77
2005-06-24 07:43:10 51°14.502 2°54.747 6.8 12 20.1 101430 77
2005-06-24 07:43:15 51°14.509 2°54.719 6.9 13 20.1 101430 77
2005-06-24 07:43:20 51°14.515 2°54.69 6.9 12 20.1 101420 77
2005-06-24 07:43:25 51°14.52 2°54.66 6.9 13 20.1 101420 77
2005-06-24 07:43:30 51°14.524 2°54.633 7 10 20.1 101430 78
2005-06-24 07:43:35 51°14.527 2°54.602 7 13 20.1 101430 78
2005-06-24 07:43:41 51°14.531 2°54.566 6.9 12 20.1 101430 78
2005-06-24 07:43:45 51°14.532 2°54.54 7.2 12 20.1 101430 78
2005-06-24 07:43:50 51°14.533 2°54.509 6.9 14 20.1 101430 78
2005-06-24 07:43:55 51°14.532 2°54.477 6.6 13 20.1 101430 78
2005-06-24 07:44:00 51°14.529 2°54.443 6.9 14 20 101430 78
2005-06-24 07:44:05 51°14.525 2°54.412 6.9 13 20 101430 78
2005-06-24 07:44:10 51°14.52 2°54.381 6.7 12 20 101430 78
2005-06-24 07:44:15 51°14.515 2°54.354 7 13 20 101430 78
2005-06-24 07:44:20 51°14.507 2°54.321 6.9 12 20 101430 78
2005-06-24 07:44:25 51°14.5 2°54.291 6.6 12 20 101430 78
2005-06-24 07:44:29 51°14.494 2°54.267 6.9 11 20 101430 78
2005-06-24 07:44:35 51°14.485 2°54.235 6.8 12 20 101430 78
2005-06-24 07:44:40 51°14.475 2°54.204 6.6 12 20 101430 78
2005-06-24 07:44:45 51°14.467 2°54.178 6.5 9 20 101430 78
2005-06-24 07:44:49 51°14.459 2°54.152 6.8 -999 20 101430 79
2005-06-24 07:44:55 51°14.448 2°54.119 6.7 11 20 101430 79
2005-06-24 07:45:00 51°14.438 2°54.091 6.6 9 20 101430 79
2005-06-24 07:45:05 51°14.429 2°54.066 6.7 10 20 101430 79
2005-06-24 07:45:09 51°14.42 2°54.041 6.9 10 20 101430 79
2005-06-24 07:45:15 51°14.409 2°54.006 7 7 20 101430 79
2005-06-24 07:45:20 51°14.399 2°53.978 6.7 6 19.9 101430 79
2005-06-24 07:45:25 51°14.39 2°53.95 6.7 8 19.9 101430 79
2005-06-24 07:45:30 51°14.382 2°53.924 6.7 5 19.9 101430 79
2005-06-24 07:45:35 51°14.373 2°53.895 6.8 7 19.9 101430 79
2005-06-24 07:45:40 51°14.363 2°53.863 6.9 6 19.9 101430 79
2005-06-24 07:45:45 51°14.353 2°53.835 6.6 7 19.9 101430 79
2005-06-24 07:45:50 51°14.343 2°53.807 6.6 9 19.9 101430 79
2005-06-24 07:45:55 51°14.334 2°53.782 6.5 8 19.9 101430 79
2005-06-24 07:46:01 51°14.321 2°53.748 6.8 7 19.9 101430 79
2005-06-24 07:46:05 51°14.311 2°53.724 6.7 6 19.9 101430 79
2005-06-24 07:46:10 51°14.301 2°53.7 6.7 7 19.9 101430 80
2005-06-24 07:46:15 51°14.29 2°53.673 6.5 5 19.9 101430 80
2005-06-24 07:46:20 51°14.277 2°53.643 6.4 6 19.9 101430 79
2005-06-24 07:46:25 51°14.266 2°53.617 6.5 5 19.9 101430 79
2005-06-24 07:46:29 51°14.257 2°53.595 6.7 5 19.9 101430 79
2005-06-24 07:46:35 51°14.243 2°53.563 6.6 4 19.9 101430 79
2005-06-24 07:46:40 51°14.233 2°53.535 6.7 4 19.9 101440 79
2005-06-24 07:46:45 51°14.222 2°53.507 6.7 4 19.9 101440 79
2005-06-24 07:46:50 51°14.212 2°53.479 6.7 3 19.9 101430 79
2005-06-24 07:46:55 51°14.204 2°53.453 6.8 4 19.9 101430 79
2005-06-24 07:47:00 51°14.193 2°53.422 6.4 4 19.9 101440 79
2005-06-24 07:47:05 51°14.184 2°53.396 6.8 2 19.9 101440 79
2005-06-24 07:47:09 51°14.176 2°53.37 6.8 2 19.9 101430 79
2005-06-24 07:47:15 51°14.164 2°53.335 6.7 3 19.9 101430 79
2005-06-24 07:47:19 51°14.156 2°53.312 6.7 2 19.9 101430 79
2005-06-24 07:47:25 51°14.144 2°53.278 6.7 2 19.9 101430 79
2005-06-24 07:47:30 51°14.134 2°53.253 7.1 4 19.9 101440 79
2005-06-24 07:47:35 51°14.123 2°53.225 7 4 19.9 101440 79
2005-06-24 07:47:40 51°14.111 2°53.195 6.8 4 19.9 101430 80
2005-06-24 07:47:45 51°14.099 2°53.167 6.9 4 19.9 101430 80
2005-06-24 07:47:50 51°14.088 2°53.14 7 3 19.9 101430 80
2005-06-24 07:47:55 51°14.076 2°53.112 6.9 4 19.9 101430 80
2005-06-24 07:48:00 51°14.065 2°53.084 6.8 3 19.9 101430 80
2005-06-24 07:48:05 51°14.054 2°53.056 6.8 4 19.9 101430 80
2005-06-24 07:48:09 51°14.046 2°53.034 6.7 2 19.9 101430 80
2005-06-24 07:48:15 51°14.034 2°53.002 6.9 5 19.9 101430 80
2005-06-24 07:48:20 51°14.023 2°52.97 6.7 4 19.9 101430 80
2005-06-24 07:48:25 51°14.014 2°52.944 6.7 5 19.9 101430 80
2005-06-24 07:48:30 51°14.002 2°52.913 6.8 6 19.9 101430 80
2005-06-24 07:48:35 51°13.993 2°52.887 6.8 7 19.9 101430 80
2005-06-24 07:48:40 51°13.981 2°52.855 6.6 7 19.9 101430 80
2005-06-24 07:48:45 51°13.971 2°52.827 6.9 4 19.9 101430 80
2005-06-24 07:48:50 51°13.961 2°52.801 6.4 8 19.9 101430 80
2005-06-24 07:48:55 51°13.95 2°52.773 6.6 7 19.9 101430 80
2005-06-24 07:49:00 51°13.938 2°52.745 6.6 7 19.9 101430 80
2005-06-24 07:49:05 51°13.926 2°52.715 6.7 7 19.9 101430 80
2005-06-24 07:49:10 51°13.914 2°52.687 6.5 7 19.9 101430 80
2005-06-24 07:49:15 51°13.903 2°52.659 6.4 8 19.9 101430 80
2005-06-24 07:49:20 51°13.892 2°52.631 6.5 9 19.9 101430 80
2005-06-24 07:49:25 51°13.881 2°52.602 6.6 7 19.9 101430 80
2005-06-24 07:49:29 51°13.873 2°52.579 6.7 8 19.9 101430 80
2005-06-24 07:49:35 51°13.861 2°52.547 6.3 8 19.9 101430 80
2005-06-24 07:49:40 51°13.85 2°52.516 6.2 7 19.9 101420 80
2005-06-24 07:49:45 51°13.84 2°52.49 6.6 9 19.9 101420 80
2005-06-24 07:49:49 51°13.831 2°52.464 6.3 8 19.9 101430 80
2005-06-24 07:49:55 51°13.818 2°52.43 6.3 9 19.9 101430 80
2005-06-24 07:50:00 51°13.807 2°52.402 6.5 6 19.9 101430 80
2005-06-24 07:50:05 51°13.797 2°52.376 6.5 7 19.9 101430 80
2005-06-24 07:50:09 51°13.787 2°52.351 6.3 7 19.9 101430 80
2005-06-24 07:50:15 51°13.773 2°52.317 6.6 5 19.9 101430 80
2005-06-24 07:50:20 51°13.761 2°52.289 6.3 5 19.9 101430 80
2005-06-24 07:50:25 51°13.75 2°52.262 6.4 5 19.9 101430 80
2005-06-24 07:50:30 51°13.74 2°52.236 6.4 6 19.9 101420 80
2005-06-24 07:50:35 51°13.729 2°52.208 6.4 6 19.9 101420 80
2005-06-24 07:50:40 51°13.717 2°52.176 6.1 6 19.9 101430 80
2005-06-24 07:50:45 51°13.707 2°52.148 6.4 7 19.9 101430 80
2005-06-24 07:50:49 51°13.698 2°52.125 6.2 7 19.9 101420 80
2005-06-24 07:50:55 51°13.685 2°52.09 6.3 6 19.9 101420 80
2005-06-24 07:51:00 51°13.674 2°52.061 6.2 7 19.9 101420 80
2005-06-24 07:51:05 51°13.665 2°52.035 6.2 8 19.9 101420 80
2005-06-24 07:51:10 51°13.652 2°52.005 6.1 9 19.9 101420 80
2005-06-24 07:51:15 51°13.642 2°51.979 6.2 8 19.9 101420 80
2005-06-24 07:51:20 51°13.631 2°51.951 6.1 9 19.9 101420 80
2005-06-24 07:51:25 51°13.619 2°51.919 6 7 19.9 101420 80
2005-06-24 07:51:30 51°13.608 2°51.891 6.2 9 19.9 101420 80
2005-06-24 07:51:35 51°13.598 2°51.865 6.2 8 19.9 101420 80
2005-06-24 07:51:40 51°13.586 2°51.834 6.4 8 19.9 101420 80
2005-06-24 07:51:45 51°13.575 2°51.805 6.2 8 19.9 101420 80
2005-06-24 07:51:50 51°13.564 2°51.776 6.4 9 19.9 101420 80
2005-06-24 07:51:55 51°13.553 2°51.747 6.4 8 19.9 101420 80
2005-06-24 07:51:59 51°13.545 2°51.724 6 7 19.9 101430 80
2005-06-24 07:52:05 51°13.532 2°51.69 6.1 8 19.9 101430 80
2005-06-24 07:52:10 51°13.522 2°51.663 6.4 7 19.9 101420 80
2005-06-24 07:52:15 51°13.511 2°51.635 6.1 6 19.9 101430 80
2005-06-24 07:52:20 51°13.499 2°51.603 6.3 7 19.9 101430 80
2005-06-24 07:52:25 51°13.488 2°51.575 6.2 6 19.9 101430 80
2005-06-24 07:52:29 51°13.479 2°51.552 6.3 7 19.9 101420 80
2005-06-24 07:52:35 51°13.465 2°51.518 6.2 6 19.9 101420 80
2005-06-24 07:52:40 51°13.455 2°51.493 6.1 7 19.9 101420 80
2005-06-24 07:52:45 51°13.442 2°51.462 6.3 6 19.9 101430 80
2005-06-24 07:52:50 51°13.431 2°51.433 6.3 6 19.9 101430 80
2005-06-24 07:52:55 51°13.421 2°51.408 6.3 6 19.9 101430 80
2005-06-24 07:53:00 51°13.408 2°51.377 6.4 5 19.9 101420 80
2005-06-24 07:53:05 51°13.397 2°51.348 6.3 6 19.9 101430 80
2005-06-24 07:53:10 51°13.386 2°51.323 6.2 5 19.9 101430 80
2005-06-24 07:53:15 51°13.375 2°51.295 6.2 6 19.9 101430 80
2005-06-24 07:53:20 51°13.363 2°51.263 6.4 6 19.9 101420 81
2005-06-24 07:53:25 51°13.352 2°51.235 6.2 6 19.9 101420 81
2005-06-24 07:53:29 51°13.343 2°51.212 6.4 5 19.9 101430 81
2005-06-24 07:53:35 51°13.331 2°51.18 6.4 5 19.9 101430 81
2005-06-24 07:53:40 51°13.319 2°51.15 6.4 5 19.9 101430 81
2005-06-24 07:53:45 51°13.307 2°51.121 6.3 5 19.9 101430 81
2005-06-24 07:53:50 51°13.297 2°51.095 6.2 -999 19.9 101420 81
2005-06-24 07:53:55 51°13.285 2°51.064 6.2 6 19.9 101420 81
2005-06-24 07:54:00 51°13.275 2°51.038 6.3 5 19.9 101420 81
2005-06-24 07:54:05 51°13.262 2°51.007 6.4 7 19.9 101420 81
2005-06-24 07:54:09 51°13.253 2°50.985 6.2 4 19.9 101420 81
2005-06-24 07:54:15 51°13.241 2°50.953 6.2 6 19.9 101420 81
2005-06-24 07:54:19 51°13.232 2°50.93 6.2 5 19.9 101430 81
2005-06-24 07:54:25 51°13.218 2°50.893 6.3 5 19.9 101430 81
2005-06-24 07:54:29 51°13.209 2°50.87 6.3 6 19.9 101420 81
2005-06-24 07:54:35 51°13.195 2°50.835 6.5 5 19.9 101420 81
2005-06-24 07:54:40 51°13.184 2°50.807 6.2 4 19.9 101420 81
2005-06-24 07:54:45 51°13.173 2°50.779 6.3 4 19.9 101420 81
2005-06-24 07:54:49 51°13.164 2°50.756 6.4 4 19.9 101420 81
2005-06-24 07:54:55 51°13.15 2°50.722 6.4 4 19.9 101420 81
2005-06-24 07:55:01 51°13.137 2°50.691 6.2 4 19.9 101420 81
2005-06-24 07:55:05 51°13.127 2°50.665 6.3 3 19.9 101420 81
2005-06-24 07:55:09 51°13.118 2°50.642 6.4 5 19.9 101420 81
2005-06-24 07:55:15 51°13.105 2°50.611 6.2 4 19.9 101420 81
2005-06-24 07:55:20 51°13.093 2°50.579 6.1 6 19.9 101420 81
2005-06-24 07:55:25 51°13.082 2°50.551 6.3 4 19.9 101420 81
2005-06-24 07:55:29 51°13.073 2°50.528 6.1 5 19.9 101420 81
2005-06-24 07:55:35 51°13.059 2°50.493 6.2 4 19.9 101420 81
2005-06-24 07:55:39 51°13.052 2°50.473 6.2 5 19.9 101420 81
2005-06-24 07:55:45 51°13.037 2°50.436 6 4 19.9 101420 82
2005-06-24 07:55:49 51°13.028 2°50.414 6.1 4 19.9 101420 82
2005-06-24 07:55:55 51°13.014 2°50.379 6.1 4 19.9 101420 82
2005-06-24 07:56:00 51°13.003 2°50.354 5.9 5 19.9 101420 82
2005-06-24 07:56:05 51°12.99 2°50.323 6.1 6 19.9 101420 82
2005-06-24 07:56:10 51°12.98 2°50.297 6 6 19.9 101420 82
2005-06-24 07:56:15 51°12.968 2°50.269 6.1 6 19.9 101420 82
2005-06-24 07:56:19 51°12.96 2°50.246 6 6 19.9 101420 81
2005-06-24 07:56:25 51°12.945 2°50.208 6 6 19.9 101420 81
2005-06-24 07:56:29 51°12.937 2°50.186 6.1 6 19.9 101420 81
2005-06-24 07:56:35 51°12.923 2°50.151 6 6 19.9 101420 81
2005-06-24 07:56:40 51°12.912 2°50.123 5.8 5 19.9 101420 81
2005-06-24 07:56:45 51°12.9 2°50.095 5.9 6 19.9 101420 81
2005-06-24 07:56:49 51°12.891 2°50.072 5.9 7 19.9 101420 81
2005-06-24 07:56:55 51°12.878 2°50.041 6.2 6 19.9 101420 81
2005-06-24 07:56:59 51°12.869 2°50.018 6.2 7 19.9 101420 81
2005-06-24 07:57:05 51°12.854 2°49.981 5.9 5 19.9 101420 81
2005-06-24 07:57:10 51°12.844 2°49.955 6 7 19.9 101420 81
2005-06-24 07:57:15 51°12.833 2°49.926 6.1 5 19.9 101420 81
2005-06-24 07:57:20 51°12.821 2°49.895 6 6 19.9 101420 81
2005-06-24 07:57:25 51°12.81 2°49.869 6.1 5 19.9 101420 81
2005-06-24 07:57:30 51°12.799 2°49.84 6.2 6 19.9 101420 82
2005-06-24 07:57:35 51°12.788 2°49.812 6.1 7 19.9 101420 82
2005-06-24 07:57:39 51°12.779 2°49.788 6.2 6 19.9 101420 82
2005-06-24 07:57:45 51°12.764 2°49.751 5.9 6 19.9 101420 82
2005-06-24 07:57:49 51°12.755 2°49.728 5.9 7 19.9 101420 82
2005-06-24 07:57:55 51°12.743 2°49.697 6 6 19.9 101420 82
2005-06-24 07:58:00 51°12.732 2°49.668 5.9 6 19.9 101420 82
2005-06-24 07:58:05 51°12.72 2°49.636 5.8 7 19.9 101420 82
2005-06-24 07:58:09 51°12.711 2°49.614 6.1 5 19.9 101420 82
2005-06-24 07:58:15 51°12.698 2°49.582 5.9 8 19.9 101420 82
2005-06-24 07:58:19 51°12.688 2°49.556 5.8 6 19.9 101420 82
2005-06-24 07:58:25 51°12.675 2°49.522 6.1 7 19.9 101420 82
2005-06-24 07:58:30 51°12.665 2°49.496 6 6 19.9 101420 82
2005-06-24 07:58:35 51°12.652 2°49.464 5.9 6 19.9 101420 82
2005-06-24 07:58:39 51°12.645 2°49.444 6 5 19.9 101420 82
2005-06-24 07:58:45 51°12.63 2°49.407 5.8 6 19.9 101420 82
2005-06-24 07:58:50 51°12.62 2°49.381 5.9 5 19.9 101420 82
2005-06-24 07:58:55 51°12.609 2°49.352 6.1 6 19.9 101420 82
2005-06-24 07:58:59 51°12.599 2°49.326 5.7 5 19.9 101420 82
2005-06-24 07:59:05 51°12.586 2°49.291 6 5 19.9 101420 82
2005-06-24 07:59:10 51°12.576 2°49.265 5.9 4 19.9 101420 82
2005-06-24 07:59:15 51°12.564 2°49.234 5.7 6 19.9 101420 82
2005-06-24 07:59:20 51°12.552 2°49.205 5.8 5 19.9 101420 82
2005-06-24 07:59:25 51°12.541 2°49.176 6.1 3 19.9 101420 82
2005-06-24 07:59:29 51°12.532 2°49.154 5.8 5 19.8 101410 82
2005-06-24 07:59:35 51°12.519 2°49.119 5.9 4 19.8 101410 82
2005-06-24 07:59:40 51°12.507 2°49.091 6.2 5 19.9 101420 82
2005-06-24 07:59:45 51°12.496 2°49.062 6 4 19.9 101420 82
2005-06-24 07:59:50 51°12.486 2°49.037 6.1 5 19.8 101410 81
2005-06-24 07:59:55 51°12.475 2°49.008 6.1 6 19.8 101410 81
2005-06-24 08:00:00 51°12.463 2°48.977 6.2 6 19.9 101420 81
2005-06-24 08:00:05 51°12.452 2°48.948 6.3 5 19.9 101420 81
2005-06-24 08:00:09 51°12.443 2°48.925 6.3 4 19.9 101420 81
2005-06-24 08:00:15 51°12.431 2°48.894 6 4 19.9 101420 81
2005-06-24 08:00:20 51°12.42 2°48.865 6.1 6 19.9 101420 81
2005-06-24 08:00:25 51°12.408 2°48.834 6.1 5 19.9 101420 81
2005-06-24 08:00:30 51°12.396 2°48.806 6.5 5 19.9 101420 81
2005-06-24 08:00:35 51°12.385 2°48.777 6 5 19.9 101420 81
2005-06-24 08:00:39 51°12.376 2°48.755 5.9 4 19.9 101420 81
2005-06-24 08:00:45 51°12.363 2°48.721 6 6 19.9 101420 81
2005-06-24 08:00:50 51°12.352 2°48.693 6.1 8 19.9 101420 81
2005-06-24 08:00:55 51°12.342 2°48.668 6.2 6 19.9 101420 81
2005-06-24 08:01:00 51°12.331 2°48.639 5.8 7 19.9 101420 81
2005-06-24 08:01:05 51°12.32 2°48.607 5.9 6 19.9 101420 81
2005-06-24 08:01:09 51°12.311 2°48.584 6 7 19.9 101420 81
2005-06-24 08:01:15 51°12.299 2°48.549 5.8 8 19.9 101420 81
2005-06-24 08:01:20 51°12.289 2°48.521 6.3 8 19.9 101420 81
2005-06-24 08:01:25 51°12.279 2°48.492 6 7 19.9 101420 81
2005-06-24 08:01:30 51°12.27 2°48.465 6.1 8 19.9 101420 81
2005-06-24 08:01:35 51°12.258 2°48.433 6.1 8 19.9 101420 81
2005-06-24 08:01:40 51°12.248 2°48.405 6.2 8 19.9 101420 81
2005-06-24 08:01:45 51°12.237 2°48.376 6.2 8 19.9 101420 81
2005-06-24 08:01:49 51°12.229 2°48.354 6.2 8 19.9 101420 81
2005-06-24 08:01:55 51°12.216 2°48.319 5.9 9 19.9 101420 81
2005-06-24 08:02:00 51°12.205 2°48.291 5.9 8 19.9 101420 81
2005-06-24 08:02:05 51°12.195 2°48.263 6.1 8 19.9 101420 81
2005-06-24 08:02:10 51°12.184 2°48.234 5.8 8 19.9 101420 81
2005-06-24 08:02:15 51°12.173 2°48.206 5.9 9 19.9 101420 81
2005-06-24 08:02:20 51°12.163 2°48.177 5.9 8 19.9 101420 81
2005-06-24 08:02:25 51°12.152 2°48.149 6 8 19.9 101420 81
2005-06-24 08:02:30 51°12.142 2°48.12 5.9 8 19.9 101420 81
2005-06-24 08:02:35 51°12.133 2°48.094 6.3 8 19.9 101420 81
2005-06-24 08:02:40 51°12.123 2°48.065 6 9 19.9 101420 81
2005-06-24 08:02:45 51°12.112 2°48.033 5.9 10 19.9 101420 81
2005-06-24 08:02:49 51°12.104 2°48.01 6.1 11 19.9 101420 81
2005-06-24 08:02:55 51°12.092 2°47.978 6 9 19.9 101420 81
2005-06-24 08:03:00 51°12.082 2°47.949 6.1 9 19.9 101420 81
2005-06-24 08:03:05 51°12.071 2°47.917 6.2 10 19.9 101420 81
2005-06-24 08:03:09 51°12.063 2°47.894 5.8 9 20 101420 81
2005-06-24 08:03:15 51°12.052 2°47.862 6.3 10 20 101420 81
2005-06-24 08:03:19 51°12.044 2°47.839 6.2 10 20 101420 81
2005-06-24 08:03:25 51°12.031 2°47.801 6.3 9 20 101420 81
2005-06-24 08:03:30 51°12.023 2°47.774 6.2 10 20 101420 81
2005-06-24 08:03:35 51°12.013 2°47.745 6.2 9 20 101420 81
2005-06-24 08:03:39 51°12.006 2°47.721 6 9 20 101420 81
2005-06-24 08:03:45 51°11.993 2°47.683 6 8 20 101420 81
2005-06-24 08:03:49 51°11.986 2°47.659 6 9 20 101420 81
2005-06-24 08:03:55 51°11.975 2°47.627 5.9 10 20 101420 81
2005-06-24 08:04:00 51°11.964 2°47.595 6 8 20 101420 82
2005-06-24 08:04:05 51°11.955 2°47.566 6 8 20 101420 82
2005-06-24 08:04:10 51°11.946 2°47.539 6.2 8 20 101420 82
2005-06-24 08:04:15 51°11.936 2°47.511 5.9 7 20 101420 82
2005-06-24 08:04:20 51°11.925 2°47.478 6 7 20 101420 82
2005-06-24 08:04:25 51°11.915 2°47.449 6 7 20 101420 82
2005-06-24 08:04:30 51°11.906 2°47.423 6 7 20 101420 81
2005-06-24 08:04:35 51°11.896 2°47.394 6 8 20 101420 81
2005-06-24 08:04:40 51°11.886 2°47.362 5.7 6 20 101420 81
2005-06-24 08:04:45 51°11.876 2°47.332 5.7 8 20 101420 81
2005-06-24 08:04:50 51°11.866 2°47.303 5.8 9 20 101420 81
2005-06-24 08:04:55 51°11.858 2°47.277 6 9 20 101420 81
2005-06-24 08:05:00 51°11.847 2°47.244 6 8 20 101420 81
2005-06-24 08:05:05 51°11.837 2°47.215 6 8 20 101420 81
2005-06-24 08:05:10 51°11.828 2°47.189 6.1 7 20 101420 81
2005-06-24 08:05:15 51°11.818 2°47.157 6.1 7 20 101420 81
2005-06-24 08:05:20 51°11.808 2°47.128 5.9 8 20 101420 81
2005-06-24 08:05:25 51°11.799 2°47.101 6.1 7 20 101420 81
2005-06-24 08:05:30 51°11.789 2°47.072 6.1 7 20 101420 81
2005-06-24 08:05:35 51°11.779 2°47.043 5.8 6 20 101420 81
2005-06-24 08:05:40 51°11.769 2°47.011 5.9 6 20 101410 81
2005-06-24 08:05:45 51°11.759 2°46.981 6.2 5 20 101410 81
2005-06-24 08:05:50 51°11.751 2°46.954 6 8 19.9 101420 81
2005-06-24 08:05:55 51°11.74 2°46.922 6.2 6 19.9 101420 81
2005-06-24 08:06:01 51°11.73 2°46.889 6.2 6 20 101410 81
2005-06-24 08:06:05 51°11.723 2°46.862 6 6 20 101410 81
2005-06-24 08:06:09 51°11.717 2°46.838 6 7 20 101420 81
2005-06-24 08:06:15 51°11.708 2°46.8 5.9 5 20 101420 81
2005-06-24 08:06:20 51°11.701 2°46.77 5.9 8 20 101410 82
2005-06-24 08:06:25 51°11.694 2°46.738 6 6 20 101410 82
2005-06-24 08:06:29 51°11.689 2°46.713 5.9 8 20 101420 82
2005-06-24 08:06:35 51°11.682 2°46.679 5.9 6 20 101420 82
2005-06-24 08:06:39 51°11.677 2°46.653 6.1 6 20 101420 82
2005-06-24 08:06:45 51°11.668 2°46.613 5.9 7 20 101420 82
2005-06-24 08:06:49 51°11.663 2°46.587 5.9 6 19.9 101420 82
2005-06-24 08:06:55 51°11.655 2°46.553 6 6 19.9 101420 82
2005-06-24 08:07:00 51°11.648 2°46.52 5.9 5 20 101420 82
2005-06-24 08:07:05 51°11.641 2°46.488 6.3 5 20 101420 82
2005-06-24 08:07:10 51°11.634 2°46.46 5.8 5 20 101420 82
2005-06-24 08:07:15 51°11.626 2°46.426 5.9 5 20 101420 82
2005-06-24 08:07:19 51°11.621 2°46.401 6.1 5 19.9 101420 82
2005-06-24 08:07:25 51°11.612 2°46.364 6 4 19.9 101420 82
2005-06-24 08:07:30 51°11.605 2°46.333 6.1 5 19.9 101420 82
2005-06-24 08:07:35 51°11.598 2°46.301 6.1 4 19.9 101420 82
2005-06-24 08:07:39 51°11.594 2°46.28 5.9 3 19.9 101420 82
2005-06-24 08:07:45 51°11.585 2°46.239 6.1 3 19.9 101420 82
2005-06-24 08:07:50 51°11.578 2°46.211 6 3 19.9 101420 82
2005-06-24 08:07:55 51°11.571 2°46.177 6.2 3 19.9 101420 82
2005-06-24 08:08:00 51°11.564 2°46.146 6.2 2 19.9 101420 82
2005-06-24 08:08:05 51°11.557 2°46.115 6.1 1 19.9 101420 82
2005-06-24 08:08:09 51°11.551 2°46.09 6.1 1 19.9 101420 81
2005-06-24 08:08:15 51°11.544 2°46.056 6.1 2 19.9 101420 81
2005-06-24 08:08:20 51°11.536 2°46.022 6.1 359 19.9 101420 81
2005-06-24 08:08:25 51°11.529 2°45.991 6.1 -999 19.9 101420 81
2005-06-24 08:08:29 51°11.524 2°45.966 6.2 360 19.9 101420 81
2005-06-24 08:08:35 51°11.517 2°45.932 6.2 2 19.9 101420 81
2005-06-24 08:08:40 51°11.51 2°45.897 6.2 1 19.9 101420 81
2005-06-24 08:08:45 51°11.504 2°45.865 6.1 360 19.9 101420 81
2005-06-24 08:08:49 51°11.499 2°45.84 5.9 360 19.9 101420 81
2005-06-24 08:08:55 51°11.493 2°45.802 6.1 -999 19.9 101420 81
2005-06-24 08:09:00 51°11.487 2°45.77 6.1 359 19.9 101420 81
2005-06-24 08:09:05 51°11.481 2°45.738 6.2 359 19.9 101420 81
2005-06-24 08:09:10 51°11.475 2°45.707 6.2 359 19.9 101420 81
2005-06-24 08:09:15 51°11.47 2°45.678 6.2 359 19.9 101420 81
2005-06-24 08:09:20 51°11.463 2°45.644 6.2 357 19.9 101420 81
2005-06-24 08:09:25 51°11.457 2°45.612 6 358 19.9 101420 81
2005-06-24 08:09:29 51°11.452 2°45.587 6.3 357 19.9 101420 81
2005-06-24 08:09:35 51°11.446 2°45.552 6 358 19.9 101420 81
2005-06-24 08:09:40 51°11.44 2°45.52 6.1 357 19.9 101420 81
2005-06-24 08:09:45 51°11.434 2°45.485 6.1 358 19.9 101420 81
2005-06-24 08:09:49 51°11.429 2°45.46 6.1 358 19.9 101420 81
2005-06-24 08:09:55 51°11.422 2°45.425 6.1 357 19.9 101420 81
2005-06-24 08:10:00 51°11.416 2°45.391 6.1 358 20 101420 82
2005-06-24 08:10:05 51°11.41 2°45.359 6 359 20 101420 82
2005-06-24 08:10:10 51°11.404 2°45.331 5.9 359 20 101420 82
2005-06-24 08:10:15 51°11.398 2°45.296 6.2 358 20 101420 82
2005-06-24 08:10:20 51°11.393 2°45.267 6.4 358 20 101420 82
2005-06-24 08:10:25 51°11.386 2°45.233 6.2 359 20 101420 82
2005-06-24 08:10:30 51°11.381 2°45.204 6.2 359 20 101420 82
2005-06-24 08:10:35 51°11.375 2°45.172 6 360 20 101420 82
2005-06-24 08:10:39 51°11.37 2°45.147 5.9 359 20 101420 82
2005-06-24 08:10:45 51°11.362 2°45.106 6.2 -999 20 101420 82
2005-06-24 08:10:49 51°11.358 2°45.081 6 359 20 101420 82
2005-06-24 08:10:55 51°11.351 2°45.046 6.1 -999 20 101420 82
2005-06-24 08:11:00 51°11.345 2°45.011 5.9 1 20 101420 82
2005-06-24 08:11:05 51°11.339 2°44.979 5.8 1 20 101420 82
2005-06-24 08:11:10 51°11.334 2°44.951 6 2 20.1 101420 82
2005-06-24 08:11:15 51°11.328 2°44.919 6 1 20.1 101420 82
2005-06-24 08:11:20 51°11.321 2°44.885 5.8 1 20.1 101420 82
2005-06-24 08:11:25 51°11.315 2°44.853 5.7 1 20.1 101420 82
2005-06-24 08:11:30 51°11.309 2°44.821 6 1 20.1 101420 82
2005-06-24 08:11:35 51°11.304 2°44.793 5.8 1 20.1 101420 82
2005-06-24 08:11:39 51°11.298 2°44.764 6.1 1 20.1 101420 82
2005-06-24 08:11:45 51°11.291 2°44.726 6.1 2 20.1 101420 82
2005-06-24 08:11:50 51°11.286 2°44.698 5.8 1 20.1 101420 82
2005-06-24 08:11:55 51°11.28 2°44.663 5.8 1 20.1 101420 82
2005-06-24 08:11:59 51°11.276 2°44.641 5.8 2 20.1 101420 82
2005-06-24 08:12:05 51°11.269 2°44.6 5.6 2 20.1 101420 82
2005-06-24 08:12:10 51°11.263 2°44.568 5.9 2 20.1 101420 82
2005-06-24 08:12:15 51°11.257 2°44.536 6 2 20.1 101420 82
2005-06-24 08:12:20 51°11.251 2°44.505 5.9 2 20.1 101420 82
2005-06-24 08:12:25 51°11.245 2°44.473 5.8 2 20.1 101420 82
2005-06-24 08:12:30 51°11.239 2°44.441 5.8 2 20.1 101420 82
2005-06-24 08:12:35 51°11.233 2°44.412 6 1 20.1 101420 82
2005-06-24 08:12:40 51°11.227 2°44.378 5.8 1 20.1 101420 82
2005-06-24 08:12:45 51°11.221 2°44.349 5.7 3 20.1 101420 82
2005-06-24 08:12:49 51°11.216 2°44.321 5.7 1 20.1 101410 82
2005-06-24 08:12:55 51°11.21 2°44.286 6 1 20.1 101410 82
2005-06-24 08:13:00 51°11.203 2°44.251 5.6 1 20.1 101410 82
2005-06-24 08:13:05 51°11.198 2°44.219 5.9 2 20.1 101410 82
2005-06-24 08:13:09 51°11.193 2°44.194 5.8 1 20.1 101420 82
2005-06-24 08:13:15 51°11.186 2°44.159 5.8 1 20.1 101420 82
2005-06-24 08:13:20 51°11.18 2°44.124 5.8 -999 20.1 101420 82
2005-06-24 08:13:25 51°11.174 2°44.096 5.9 1 20.1 101420 82
2005-06-24 08:13:30 51°11.168 2°44.064 5.8 -999 20.1 101420 82
2005-06-24 08:13:35 51°11.162 2°44.029 5.9 1 20.1 101420 82
2005-06-24 08:13:40 51°11.156 2°43.998 5.9 360 20.1 101420 82
2005-06-24 08:13:45 51°11.15 2°43.966 5.8 -999 20.1 101420 82
2005-06-24 08:13:50 51°11.145 2°43.938 6 360 20.1 101420 82
2005-06-24 08:13:55 51°11.139 2°43.906 5.9 359 20.1 101420 82
2005-06-24 08:13:59 51°11.133 2°43.877 5.8 358 20.1 101410 82
2005-06-24 08:14:05 51°11.126 2°43.839 5.7 359 20.1 101410 82
2005-06-24 08:14:10 51°11.12 2°43.808 5.7 359 20.1 101420 82
2005-06-24 08:14:15 51°11.115 2°43.779 6 359 20.1 101420 82
2005-06-24 08:14:19 51°11.109 2°43.751 5.8 359 20.1 101420 82
2005-06-24 08:14:25 51°11.102 2°43.713 5.7 358 20.1 101420 82
2005-06-24 08:14:30 51°11.096 2°43.681 5.8 357 20.1 101410 82
2005-06-24 08:14:35 51°11.091 2°43.653 5.8 358 20.1 101410 82
2005-06-24 08:14:40 51°11.085 2°43.62 5.7 359 20.1 101410 82
2005-06-24 08:14:45 51°11.078 2°43.585 5.8 359 20.1 101410 82
2005-06-24 08:14:49 51°11.073 2°43.56 5.9 359 20.1 101420 82
2005-06-24 08:14:55 51°11.067 2°43.525 5.9 358 20.1 101420 82
2005-06-24 08:14:59 51°11.061 2°43.496 5.7 359 20.1 101410 82
2005-06-24 08:15:05 51°11.054 2°43.458 6.1 359 20.1 101410 82
2005-06-24 08:15:09 51°11.05 2°43.433 5.8 357 20.1 101410 82
2005-06-24 08:15:15 51°11.043 2°43.398 5.8 359 20.1 101410 82
2005-06-24 08:15:20 51°11.038 2°43.366 6 358 20.1 101410 82
2005-06-24 08:15:25 51°11.031 2°43.332 5.6 357 20.1 101410 82
2005-06-24 08:15:30 51°11.026 2°43.303 6 357 20.1 101410 82
2005-06-24 08:15:35 51°11.019 2°43.268 5.7 358 20.1 101410 82
2005-06-24 08:15:40 51°11.014 2°43.237 5.8 358 20.2 101410 82
2005-06-24 08:15:45 51°11.008 2°43.205 5.7 359 20.2 101410 82
2005-06-24 08:15:50 51°11.002 2°43.173 5.8 360 20.2 101410 82
2005-06-24 08:15:55 51°10.997 2°43.145 5.7 360 20.2 101410 82
2005-06-24 08:15:59 51°10.991 2°43.116 5.5 -999 20.2 101410 82
2005-06-24 08:16:05 51°10.984 2°43.078 5.6 359 20.2 101410 82
2005-06-24 08:16:09 51°10.98 2°43.053 5.5 360 20.2 101410 82
2005-06-24 08:16:15 51°10.973 2°43.014 5.5 359 20.2 101410 82
2005-06-24 08:16:19 51°10.969 2°42.992 5.7 -999 20.2 101410 82
2005-06-24 08:16:25 51°10.962 2°42.951 5.6 359 20.2 101410 82
2005-06-24 08:16:30 51°10.957 2°42.922 5.7 2 20.2 101410 82
2005-06-24 08:16:35 51°10.951 2°42.887 5.8 1 20.2 101410 82
2005-06-24 08:16:39 51°10.947 2°42.861 5.7 1 20.2 101410 82
2005-06-24 08:16:45 51°10.941 2°42.823 5.6 1 20.2 101410 82
2005-06-24 08:16:49 51°10.937 2°42.798 5.6 1 20.2 101410 82
2005-06-24 08:16:55 51°10.931 2°42.762 5.8 1 20.2 101410 82
2005-06-24 08:17:00 51°10.926 2°42.728 5.8 2 20.2 101410 82
2005-06-24 08:17:05 51°10.921 2°42.699 5.8 2 20.2 101410 82
2005-06-24 08:17:10 51°10.916 2°42.667 5.5 2 20.2 101410 82
2005-06-24 08:17:15 51°10.911 2°42.635 5.6 1 20.2 101410 82
2005-06-24 08:17:21 51°10.905 2°42.597 5.5 3 20.2 101410 82
2005-06-24 08:17:25 51°10.9 2°42.568 5.5 2 20.2 101410 82
2005-06-24 08:17:29 51°10.896 2°42.543 5.6 2 20.2 101410 81
2005-06-24 08:17:35 51°10.89 2°42.504 5.5 3 20.2 101410 81
2005-06-24 08:17:40 51°10.884 2°42.473 5.7 3 20.2 101410 81
2005-06-24 08:17:45 51°10.879 2°42.441 5.7 3 20.2 101410 81
2005-06-24 08:17:50 51°10.874 2°42.412 5.6 3 20.3 101410 81
2005-06-24 08:17:55 51°10.869 2°42.377 5.6 2 20.3 101410 81
2005-06-24 08:18:00 51°10.864 2°42.346 5.6 3 20.2 101410 81
2005-06-24 08:18:05 51°10.859 2°42.314 5.7 3 20.2 101410 81
2005-06-24 08:18:10 51°10.854 2°42.285 5.5 4 20.2 101410 81
2005-06-24 08:18:15 51°10.849 2°42.253 5.5 3 20.2 101410 81
2005-06-24 08:18:21 51°10.842 2°42.215 5.6 4 20.3 101410 81
2005-06-24 08:18:25 51°10.838 2°42.187 5.5 3 20.3 101410 81
2005-06-24 08:18:30 51°10.833 2°42.158 5.7 4 20.2 101410 81
2005-06-24 08:18:35 51°10.828 2°42.126 5.8 5 20.2 101410 81
2005-06-24 08:18:39 51°10.824 2°42.101 5.7 3 20.3 101410 81
2005-06-24 08:18:45 51°10.817 2°42.06 5.7 3 20.3 101410 81
2005-06-24 08:18:50 51°10.812 2°42.028 5.8 4 20.3 101410 81
2005-06-24 08:18:54 51°10.808 2°42.002 5.7 5 20.3 101410 81
2005-06-24 08:19:00 51°10.802 2°41.964 5.9 5 20.2 101410 81
2005-06-24 08:19:05 51°10.797 2°41.933 5.8 4 20.2 101410 81
2005-06-24 08:19:10 51°10.792 2°41.901 5.8 5 20.3 101410 81
2005-06-24 08:19:15 51°10.787 2°41.868 5.8 4 20.3 101410 81
2005-06-24 08:19:19 51°10.783 2°41.847 5.8 3 20.3 101410 81
2005-06-24 08:19:25 51°10.777 2°41.805 5.7 6 20.3 101410 81
2005-06-24 08:19:29 51°10.773 2°41.779 5.9 3 20.3 101410 81
2005-06-24 08:19:35 51°10.767 2°41.744 5.9 6 20.3 101410 81
2005-06-24 08:19:39 51°10.763 2°41.719 5.8 5 20.3 101410 81
2005-06-24 08:19:45 51°10.756 2°41.678 5.9 5 20.3 101410 81
2005-06-24 08:19:50 51°10.751 2°41.646 5.8 3 20.3 101410 81
2005-06-24 08:19:55 51°10.747 2°41.617 5.9 5 20.3 101410 81
2005-06-24 08:20:00 51°10.742 2°41.585 5.7 5 20.3 101410 81
2005-06-24 08:20:05 51°10.736 2°41.551 5.9 5 20.3 101410 81
2005-06-24 08:20:10 51°10.731 2°41.519 6 6 20.3 101410 81
2005-06-24 08:20:15 51°10.726 2°41.49 6 5 20.3 101410 81
2005-06-24 08:20:19 51°10.722 2°41.461 6 5 20.3 101420 81
2005-06-24 08:20:25 51°10.716 2°41.424 6 4 20.3 101420 81
2005-06-24 08:20:30 51°10.711 2°41.395 5.8 5 20.3 101410 81
2005-06-24 08:20:35 51°10.707 2°41.363 5.7 5 20.3 101410 81
2005-06-24 08:20:40 51°10.701 2°41.328 5.6 5 20.3 101410 81
2005-06-24 08:20:45 51°10.696 2°41.296 5.9 6 20.3 101410 81
2005-06-24 08:20:49 51°10.692 2°41.271 5.9 6 20.3 101420 80
2005-06-24 08:20:55 51°10.687 2°41.236 5.8 6 20.3 101420 80
2005-06-24 08:21:00 51°10.682 2°41.204 6 7 20.2 101420 80
2005-06-24 08:21:05 51°10.676 2°41.17 5.7 6 20.2 101420 80
2005-06-24 08:21:10 51°10.671 2°41.141 5.7 7 20.2 101420 80
2005-06-24 08:21:15 51°10.666 2°41.109 5.8 7 20.2 101420 80
2005-06-24 08:21:20 51°10.66 2°41.075 5.8 7 20.2 101420 80
2005-06-24 08:21:25 51°10.655 2°41.043 5.7 7 20.2 101420 80
2005-06-24 08:21:30 51°10.65 2°41.011 5.7 7 20.2 101410 80
2005-06-24 08:21:35 51°10.645 2°40.979 5.7 8 20.2 101410 80
2005-06-24 08:21:40 51°10.64 2°40.948 5.8 7 20.2 101410 80
2005-06-24 08:21:45 51°10.634 2°40.916 5.7 8 20.2 101410 80
2005-06-24 08:21:50 51°10.63 2°40.887 6 8 20.2 101410 80
2005-06-24 08:21:54 51°10.625 2°40.859 6 7 20.2 101410 80
2005-06-24 08:22:01 51°10.619 2°40.818 5.8 9 20.1 101410 81
2005-06-24 08:22:05 51°10.614 2°40.789 5.7 8 20.1 101410 81
2005-06-24 08:22:09 51°10.61 2°40.764 5.9 8 20.1 101410 81
2005-06-24 08:22:15 51°10.604 2°40.725 5.7 9 20.1 101410 81
2005-06-24 08:22:19 51°10.601 2°40.704 5.7 8 20.1 101410 81
2005-06-24 08:22:25 51°10.595 2°40.662 5.6 9 20.1 101410 81
2005-06-24 08:22:29 51°10.591 2°40.637 5.7 10 20.1 101410 81
2005-06-24 08:22:35 51°10.585 2°40.602 5.6 9 20.1 101410 81
2005-06-24 08:22:39 51°10.581 2°40.573 5.5 9 20 101410 81
2005-06-24 08:22:45 51°10.575 2°40.536 5.6 11 20 101410 81
2005-06-24 08:22:50 51°10.57 2°40.504 5.5 10 20.1 101420 81
2005-06-24 08:22:55 51°10.565 2°40.472 5.5 11 20.1 101420 81
2005-06-24 08:22:59 51°10.56 2°40.447 5.4 9 20.1 101410 81
2005-06-24 08:23:05 51°10.554 2°40.41 5.5 12 20.1 101410 81
2005-06-24 08:23:10 51°10.549 2°40.378 5.4 12 20 101410 81
2005-06-24 08:23:15 51°10.545 2°40.35 5.3 11 20 101410 81
2005-06-24 08:23:19 51°10.54 2°40.321 5.3 12 20 101410 81
2005-06-24 08:23:25 51°10.535 2°40.284 5.5 12 20 101410 81
2005-06-24 08:23:30 51°10.53 2°40.252 5.3 12 20 101410 81
2005-06-24 08:23:35 51°10.525 2°40.221 5.3 12 20 101410 81
2005-06-24 08:23:39 51°10.521 2°40.195 5.2 13 20 101410 81
2005-06-24 08:23:45 51°10.515 2°40.158 5.3 11 20 101410 81
2005-06-24 08:23:49 51°10.511 2°40.133 5.2 11 20 101410 81
2005-06-24 08:23:55 51°10.505 2°40.095 5.3 12 20 101410 81
2005-06-24 08:23:59 51°10.501 2°40.07 5.4 12 20 101410 81
2005-06-24 08:24:05 51°10.495 2°40.032 5.1 12 20 101410 81
2005-06-24 08:24:09 51°10.491 2°40.007 5.4 12 20 101410 81
2005-06-24 08:24:15 51°10.485 2°39.969 5.3 12 20 101410 81
2005-06-24 08:24:19 51°10.482 2°39.944 5.5 12 20 101410 81
2005-06-24 08:24:25 51°10.476 2°39.907 5.3 12 20 101410 81
2005-06-24 08:24:29 51°10.472 2°39.881 5.2 11 20 101410 81
2005-06-24 08:24:35 51°10.467 2°39.847 5.2 12 20 101410 81
2005-06-24 08:24:40 51°10.461 2°39.813 5.1 12 20 101410 81
2005-06-24 08:24:45 51°10.456 2°39.781 5.2 12 20 101410 81
2005-06-24 08:24:50 51°10.452 2°39.753 5.1 11 20 101410 81
2005-06-24 08:24:55 51°10.447 2°39.721 5 12 20 101410 81
2005-06-24 08:25:01 51°10.441 2°39.684 5 12 19.9 101410 81
2005-06-24 08:25:05 51°10.437 2°39.655 5.1 12 19.9 101410 81
2005-06-24 08:25:10 51°10.432 2°39.624 5.1 11 19.9 101410 81
2005-06-24 08:25:15 51°10.427 2°39.595 5 11 19.9 101410 81
2005-06-24 08:25:19 51°10.423 2°39.567 5 10 19.9 101410 81
2005-06-24 08:25:25 51°10.417 2°39.529 5.1 11 19.9 101410 81
2005-06-24 08:25:30 51°10.412 2°39.498 4.9 11 19.9 101400 81
2005-06-24 08:25:35 51°10.407 2°39.47 4.8 11 19.9 101400 81
2005-06-24 08:25:40 51°10.402 2°39.438 5 8 19.9 101410 81
2005-06-24 08:25:45 51°10.396 2°39.404 4.8 11 19.9 101410 81
2005-06-24 08:25:49 51°10.392 2°39.378 5 10 19.9 101410 81
2005-06-24 08:25:55 51°10.386 2°39.34 5.2 11 19.9 101410 81
2005-06-24 08:26:00 51°10.382 2°39.309 5 8 19.9 101410 81
2005-06-24 08:26:05 51°10.377 2°39.278 4.9 10 19.9 101410 81
2005-06-24 08:26:10 51°10.372 2°39.249 4.9 9 19.9 101400 81
2005-06-24 08:26:15 51°10.367 2°39.218 4.9 10 19.9 101400 81
2005-06-24 08:26:19 51°10.363 2°39.189 5.2 9 19.9 101400 81
2005-06-24 08:26:25 51°10.357 2°39.152 5 10 19.9 101400 81
2005-06-24 08:26:30 51°10.353 2°39.123 4.9 9 19.9 101400 81
2005-06-24 08:26:35 51°10.349 2°39.092 4.8 10 19.9 101400 81
2005-06-24 08:26:40 51°10.344 2°39.057 4.7 9 19.9 101400 81
2005-06-24 08:26:45 51°10.34 2°39.025 4.9 11 19.9 101400 81
2005-06-24 08:26:50 51°10.336 2°38.997 4.8 9 19.9 101400 81
2005-06-24 08:26:55 51°10.332 2°38.965 4.9 10 19.9 101400 81
2005-06-24 08:27:00 51°10.327 2°38.93 4.9 9 19.9 101400 81
2005-06-24 08:27:05 51°10.322 2°38.899 4.8 8 19.9 101400 81
2005-06-24 08:27:10 51°10.318 2°38.867 4.9 9 19.8 101400 81
2005-06-24 08:27:15 51°10.314 2°38.839 4.8 10 19.8 101400 81
2005-06-24 08:27:20 51°10.309 2°38.804 4.8 10 19.8 101400 81
2005-06-24 08:27:25 51°10.305 2°38.772 4.8 10 19.8 101400 81
2005-06-24 08:27:29 51°10.301 2°38.747 4.7 9 19.8 101400 81
2005-06-24 08:27:35 51°10.296 2°38.712 4.7 10 19.8 101400 81
2005-06-24 08:27:40 51°10.291 2°38.677 4.8 9 19.9 101400 81
2005-06-24 08:27:45 51°10.287 2°38.646 4.7 10 19.9 101400 81
2005-06-24 08:27:49 51°10.284 2°38.62 4.8 11 19.8 101400 81
2005-06-24 08:27:55 51°10.278 2°38.582 4.7 11 19.8 101400 81
2005-06-24 08:27:58 51°10.276 2°38.563 4.8 10 19.8 101400 81
2005-06-24 08:28:05 51°10.27 2°38.519 4.8 11 19.8 101400 81
2005-06-24 08:28:10 51°10.266 2°38.49 4.8 10 19.8 101400 81
2005-06-24 08:28:15 51°10.262 2°38.458 4.6 9 19.8 101400 81
2005-06-24 08:28:21 51°10.257 2°38.42 4.9 9 19.8 101400 81
2005-06-24 08:28:25 51°10.252 2°38.392 4.8 10 19.8 101400 81
2005-06-24 08:28:29 51°10.249 2°38.366 4.8 10 19.8 101400 81
2005-06-24 08:28:35 51°10.244 2°38.331 4.7 9 19.8 101400 81
2005-06-24 08:28:39 51°10.241 2°38.306 4.9 9 19.8 101400 81
2005-06-24 08:28:45 51°10.235 2°38.265 4.8 10 19.8 101400 81
2005-06-24 08:28:49 51°10.231 2°38.239 4.9 10 19.8 101400 81
2005-06-24 08:28:55 51°10.227 2°38.204 4.9 10 19.8 101400 81
2005-06-24 08:29:00 51°10.222 2°38.169 4.8 9 19.8 101400 81
2005-06-24 08:29:05 51°10.218 2°38.137 4.8 9 19.8 101400 81
2005-06-24 08:29:10 51°10.214 2°38.108 4.8 8 19.8 101400 81
2005-06-24 08:29:15 51°10.21 2°38.076 4.9 10 19.8 101400 81
2005-06-24 08:29:19 51°10.206 2°38.047 5 8 19.8 101400 81
2005-06-24 08:29:25 51°10.2 2°38.009 5.1 8 19.8 101400 81
2005-06-24 08:29:30 51°10.197 2°37.98 5 7 19.8 101400 81
2005-06-24 08:29:35 51°10.192 2°37.949 4.9 7 19.8 101400 81
2005-06-24 08:29:40 51°10.188 2°37.914 5 7 19.8 101400 81
2005-06-24 08:29:45 51°10.183 2°37.882 4.9 5 19.8 101400 81
2005-06-24 08:29:50 51°10.179 2°37.85 5 6 19.8 101400 81
2005-06-24 08:29:55 51°10.175 2°37.821 4.9 4 19.8 101400 81
2005-06-24 08:29:59 51°10.172 2°37.796 4.8 4 19.8 101400 81
2005-06-24 08:30:05 51°10.166 2°37.754 4.9 4 19.8 101400 81
2005-06-24 08:30:09 51°10.163 2°37.729 4.9 4 19.8 101410 81
2005-06-24 08:30:15 51°10.157 2°37.691 4.8 3 19.8 101410 81
2005-06-24 08:30:19 51°10.154 2°37.668 4.9 3 19.8 101400 81
2005-06-24 08:30:25 51°10.148 2°37.627 4.9 3 19.8 101400 81
2005-06-24 08:30:29 51°10.144 2°37.602 5 4 19.8 101400 81
2005-06-24 08:30:35 51°10.14 2°37.566 5 3 19.8 101400 81
2005-06-24 08:30:40 51°10.135 2°37.531 4.9 3 19.8 101410 81
2005-06-24 08:30:45 51°10.131 2°37.502 4.8 4 19.8 101410 81
2005-06-24 08:30:50 51°10.126 2°37.47 4.7 3 19.8 101400 81
2005-06-24 08:30:55 51°10.122 2°37.438 4.8 4 19.8 101400 81
2005-06-24 08:31:00 51°10.117 2°37.403 4.7 3 19.8 101410 81
2005-06-24 08:31:05 51°10.113 2°37.371 4.8 3 19.8 101410 81
2005-06-24 08:31:10 51°10.109 2°37.343 4.7 3 19.8 101410 82
2005-06-24 08:31:15 51°10.104 2°37.31 4.8 3 19.8 101410 82
2005-06-24 08:31:20 51°10.099 2°37.276 4.6 2 19.8 101410 82
2005-06-24 08:31:25 51°10.094 2°37.244 4.7 2 19.8 101410 82
2005-06-24 08:31:30 51°10.09 2°37.215 4.8 2 19.8 101410 82
2005-06-24 08:31:35 51°10.085 2°37.18 4.8 1 19.8 101410 82
2005-06-24 08:31:39 51°10.082 2°37.158 4.8 -999 19.8 101410 82
2005-06-24 08:31:45 51°10.076 2°37.116 4.9 2 19.8 101410 82
2005-06-24 08:31:49 51°10.073 2°37.09 4.7 2 19.8 101410 82
2005-06-24 08:31:54 51°10.068 2°37.058 4.9 2 19.8 101410 82
2005-06-24 08:32:01 51°10.063 2°37.017 4.6 2 19.8 101410 82
2005-06-24 08:32:05 51°10.059 2°36.988 4.8 2 19.8 101410 82
2005-06-24 08:32:09 51°10.056 2°36.963 4.9 2 19.8 101410 82
2005-06-24 08:32:15 51°10.05 2°36.924 5 1 19.8 101410 82
2005-06-24 08:32:19 51°10.047 2°36.898 4.9 2 19.8 101410 82
2005-06-24 08:32:25 51°10.042 2°36.861 4.8 2 19.8 101410 82
2005-06-24 08:32:30 51°10.038 2°36.832 4.9 2 19.9 101410 82
2005-06-24 08:32:35 51°10.033 2°36.797 4.8 3 19.9 101410 82
2005-06-24 08:32:39 51°10.029 2°36.775 4.9 3 19.9 101410 82
2005-06-24 08:32:45 51°10.024 2°36.734 4.9 4 19.9 101410 82
2005-06-24 08:32:50 51°10.019 2°36.702 4.9 2 19.9 101410 82
2005-06-24 08:32:55 51°10.015 2°36.67 4.9 3 19.9 101410 82
2005-06-24 08:32:59 51°10.011 2°36.645 4.8 2 19.9 101410 82
2005-06-24 08:33:05 51°10.006 2°36.607 4.7 4 19.9 101410 82
2005-06-24 08:33:10 51°10.002 2°36.578 4.9 2 19.9 101410 81
2005-06-24 08:33:15 51°10 2°36.542 4.8 8 19.9 101410 81
2005-06-24 08:33:20 51°9.998 2°36.51 4.9 6 19.9 101410 81
2005-06-24 08:33:25 51°9.998 2°36.478 4.6 10 19.9 101410 81
2005-06-24 08:33:30 51°9.998 2°36.449 5 10 19.9 101410 81
2005-06-24 08:33:35 51°9.999 2°36.417 4.8 10 19.9 101410 81
2005-06-24 08:33:40 51°10 2°36.382 4.8 11 19.9 101410 81
2005-06-24 08:33:45 51°10.001 2°36.349 4.8 11 19.9 101410 81
2005-06-24 08:33:50 51°10.003 2°36.317 5 12 19.9 101410 81
2005-06-24 08:33:55 51°10.005 2°36.288 5.2 12 19.9 101410 81
2005-06-24 08:34:00 51°10.007 2°36.256 4.9 12 19.9 101410 80
2005-06-24 08:34:05 51°10.009 2°36.221 5 13 19.9 101410 80
2005-06-24 08:34:09 51°10.01 2°36.195 4.9 13 19.9 101410 80
2005-06-24 08:34:15 51°10.013 2°36.156 4.8 13 19.9 101410 80
2005-06-24 08:34:20 51°10.015 2°36.125 4.9 14 19.9 101410 80
2005-06-24 08:34:25 51°10.017 2°36.093 4.9 13 19.9 101410 80
2005-06-24 08:34:29 51°10.018 2°36.067 4.9 14 19.9 101410 80
2005-06-24 08:34:35 51°10.02 2°36.032 4.7 14 19.9 101410 80
2005-06-24 08:34:39 51°10.022 2°36.003 4.7 12 19.9 101410 80
2005-06-24 08:34:45 51°10.025 2°35.966 4.7 17 19.9 101410 80
2005-06-24 08:34:49 51°10.029 2°35.942 4.9 19 19.9 101410 80
2005-06-24 08:34:55 51°10.034 2°35.908 4.8 21 19.9 101410 80
2005-06-24 08:34:59 51°10.038 2°35.885 4.9 21 19.9 101410 80
2005-06-24 08:35:05 51°10.046 2°35.846 4.9 24 19.9 101410 80
2005-06-24 08:35:10 51°10.052 2°35.817 5 21 19.9 101410 80
2005-06-24 08:35:15 51°10.06 2°35.789 5.2 25 19.9 101410 80
2005-06-24 08:35:19 51°10.067 2°35.767 5.3 25 19.9 101410 80
2005-06-24 08:35:25 51°10.078 2°35.736 5.5 25 19.9 101410 80
2005-06-24 08:35:30 51°10.088 2°35.714 5.4 25 19.9 101410 80
2005-06-24 08:35:35 51°10.1 2°35.688 5.7 25 19.9 101410 80
2005-06-24 08:35:39 51°10.11 2°35.67 5.7 25 19.9 101410 80
2005-06-24 08:35:45 51°10.124 2°35.643 5.6 25 19.9 101410 80
2005-06-24 08:35:50 51°10.136 2°35.623 5.9 27 19.8 101410 80
2005-06-24 08:35:55 51°10.149 2°35.603 5.8 27 19.8 101410 80
2005-06-24 08:35:59 51°10.159 2°35.592 6.1 24 19.9 101410 80
2005-06-24 08:36:05 51°10.178 2°35.571 6.1 28 19.9 101410 80
2005-06-24 08:36:09 51°10.19 2°35.56 6.1 25 19.9 101410 80
2005-06-24 08:36:15 51°10.209 2°35.545 6.3 27 19.9 101410 80
2005-06-24 08:36:20 51°10.224 2°35.534 6.5 27 19.8 101410 80
2005-06-24 08:36:25 51°10.24 2°35.525 6.7 28 19.8 101410 80
2005-06-24 08:36:30 51°10.257 2°35.517 6.9 25 19.8 101410 80
2005-06-24 08:36:35 51°10.274 2°35.512 7.1 27 19.8 101410 80
2005-06-24 08:36:40 51°10.29 2°35.51 7.2 26 19.8 101410 80
2005-06-24 08:36:45 51°10.307 2°35.509 7.4 25 19.8 101410 80
2005-06-24 08:36:50 51°10.324 2°35.51 7.4 27 19.8 101410 80
2005-06-24 08:36:55 51°10.339 2°35.512 7.4 26 19.8 101410 80
2005-06-24 08:37:00 51°10.357 2°35.517 7.7 22 19.8 101400 80
2005-06-24 08:37:05 51°10.373 2°35.524 7.6 24 19.8 101400 80
2005-06-24 08:37:09 51°10.385 2°35.532 7.7 22 19.8 101400 80
2005-06-24 08:37:15 51°10.403 2°35.544 8.2 23 19.8 101400 80
2005-06-24 08:37:20 51°10.417 2°35.555 8 22 19.7 101400 80
2005-06-24 08:37:25 51°10.432 2°35.567 8.1 22 19.7 101400 80
2005-06-24 08:37:30 51°10.444 2°35.579 8.2 22 19.7 101400 80
2005-06-24 08:37:35 51°10.46 2°35.593 8.4 22 19.7 101400 80
2005-06-24 08:37:39 51°10.469 2°35.603 8.4 22 19.7 101400 80
2005-06-24 08:37:45 51°10.486 2°35.623 8.3 22 19.7 101400 80
2005-06-24 08:37:50 51°10.499 2°35.639 8.5 21 19.7 101400 81
2005-06-24 08:37:55 51°10.511 2°35.656 8.5 21 19.7 101400 81
2005-06-24 08:37:59 51°10.521 2°35.669 8.5 21 19.7 101400 81
2005-06-24 08:38:05 51°10.536 2°35.69 8.7 21 19.7 101400 81
2005-06-24 08:38:10 51°10.548 2°35.707 8.5 21 19.7 101400 81
2005-06-24 08:38:15 51°10.559 2°35.722 8.6 21 19.7 101400 81
2005-06-24 08:38:21 51°10.574 2°35.742 8.7 22 19.7 101400 81
2005-06-24 08:38:25 51°10.584 2°35.756 8.8 21 19.7 101400 81
2005-06-24 08:38:30 51°10.597 2°35.772 8.6 20 19.7 101400 81
2005-06-24 08:38:35 51°10.611 2°35.791 8.7 21 19.7 101400 81
2005-06-24 08:38:41 51°10.624 2°35.809 8.5 21 19.7 101400 81
2005-06-24 08:38:45 51°10.636 2°35.824 8.5 21 19.7 101400 81
2005-06-24 08:38:49 51°10.646 2°35.838 8.7 21 19.7 101400 81
2005-06-24 08:38:55 51°10.66 2°35.856 8.7 22 19.7 101400 81
2005-06-24 08:38:59 51°10.67 2°35.87 8.5 22 19.7 101400 81
2005-06-24 08:39:05 51°10.686 2°35.891 8.7 21 19.7 101400 81
2005-06-24 08:39:09 51°10.696 2°35.905 8.4 22 19.7 101400 81
2005-06-24 08:39:15 51°10.711 2°35.925 8.7 21 19.7 101400 81
2005-06-24 08:39:20 51°10.724 2°35.942 8.7 21 19.7 101400 81
2005-06-24 08:39:25 51°10.736 2°35.96 8.6 21 19.7 101400 81
2005-06-24 08:39:30 51°10.747 2°35.975 8.3 22 19.7 101400 81
2005-06-24 08:39:35 51°10.761 2°35.994 8.7 22 19.7 101400 81
2005-06-24 08:39:39 51°10.77 2°36.005 8.7 22 19.6 101400 81
2005-06-24 08:39:45 51°10.786 2°36.027 8.7 22 19.6 101400 81
2005-06-24 08:39:49 51°10.797 2°36.041 8.5 22 19.7 101400 81
2005-06-24 08:39:55 51°10.812 2°36.062 8.6 21 19.7 101400 81
2005-06-24 08:39:59 51°10.821 2°36.075 8.9 22 19.6 101400 81
2005-06-24 08:40:05 51°10.836 2°36.096 8.8 22 19.6 101400 81
2005-06-24 08:40:10 51°10.848 2°36.113 8.5 22 19.6 101400 82
2005-06-24 08:40:15 51°10.859 2°36.129 8.8 22 19.6 101400 82
2005-06-24 08:40:21 51°10.874 2°36.149 8.6 22 19.7 101400 82
2005-06-24 08:40:25 51°10.884 2°36.163 8.6 22 19.7 101400 82
2005-06-24 08:40:30 51°10.897 2°36.18 8.8 22 19.6 101400 82
2005-06-24 08:40:35 51°10.911 2°36.198 8.7 23 19.6 101400 82
2005-06-24 08:40:41 51°10.924 2°36.217 8.8 23 19.6 101400 82
2005-06-24 08:40:45 51°10.936 2°36.232 8.9 22 19.6 101400 82
2005-06-24 08:40:49 51°10.946 2°36.246 8.7 22 19.6 101400 82
2005-06-24 08:40:55 51°10.959 2°36.265 9 22 19.6 101400 82
2005-06-24 08:40:59 51°10.969 2°36.278 8.9 23 19.6 101400 82
2005-06-24 08:41:05 51°10.985 2°36.301 8.8 22 19.6 101400 82
2005-06-24 08:41:09 51°10.995 2°36.315 9 22 19.6 101400 82
2005-06-24 08:41:15 51°11.01 2°36.335 8.8 23 19.6 101400 82
2005-06-24 08:41:19 51°11.019 2°36.347 8.8 22 19.6 101390 82
2005-06-24 08:41:25 51°11.035 2°36.37 8.7 23 19.6 101390 82
2005-06-24 08:41:30 51°11.046 2°36.385 8.6 23 19.6 101390 82
2005-06-24 08:41:35 51°11.06 2°36.404 8.6 23 19.6 101390 82
2005-06-24 08:41:39 51°11.068 2°36.416 8.8 21 19.6 101400 82
2005-06-24 08:41:45 51°11.084 2°36.438 8.6 23 19.6 101400 82
2005-06-24 08:41:50 51°11.096 2°36.456 8.6 23 19.6 101390 82
2005-06-24 08:41:55 51°11.109 2°36.473 8.7 23 19.6 101390 82
2005-06-24 08:41:59 51°11.118 2°36.487 8.6 24 19.5 101390 83
2005-06-24 08:42:05 51°11.133 2°36.507 8.5 23 19.5 101390 83
2005-06-24 08:42:10 51°11.145 2°36.524 8.7 23 19.5 101400 83
2005-06-24 08:42:15 51°11.157 2°36.539 8.7 23 19.5 101400 83
2005-06-24 08:42:20 51°11.17 2°36.558 8.7 22 19.5 101390 83
2005-06-24 08:42:25 51°11.181 2°36.573 8.7 23 19.5 101390 83
2005-06-24 08:42:30 51°11.194 2°36.59 8.7 23 19.5 101400 83
2005-06-24 08:42:35 51°11.207 2°36.609 8.6 23 19.5 101400 83
2005-06-24 08:42:41 51°11.221 2°36.627 8.4 24 19.5 101390 83
2005-06-24 08:42:45 51°11.232 2°36.643 8.7 23 19.5 101390 83
2005-06-24 08:42:49 51°11.242 2°36.656 8.6 23 19.5 101390 83
2005-06-24 08:42:55 51°11.256 2°36.675 8.8 24 19.5 101390 83
2005-06-24 08:42:59 51°11.265 2°36.688 8.5 25 19.5 101390 83
2005-06-24 08:43:05 51°11.282 2°36.71 8.5 25 19.5 101390 83
2005-06-24 08:43:09 51°11.292 2°36.723 8.3 26 19.5 101390 83
2005-06-24 08:43:15 51°11.307 2°36.744 8.5 25 19.5 101390 83
2005-06-24 08:43:19 51°11.315 2°36.755 8.4 25 19.5 101390 83
2005-06-24 08:43:25 51°11.331 2°36.777 8.7 25 19.5 101390 83
2005-06-24 08:43:30 51°11.342 2°36.793 8.7 25 19.5 101390 83
2005-06-24 08:43:35 51°11.356 2°36.812 8.7 25 19.5 101390 83
2005-06-24 08:43:39 51°11.364 2°36.823 8.7 25 19.5 101390 83
2005-06-24 08:43:45 51°11.38 2°36.846 8.7 25 19.5 101390 83
2005-06-24 08:43:50 51°11.393 2°36.862 8.8 25 19.5 101390 83
2005-06-24 08:43:55 51°11.405 2°36.879 8.8 25 19.5 101390 83
2005-06-24 08:43:59 51°11.415 2°36.893 8.8 26 19.4 101390 83
2005-06-24 08:44:05 51°11.43 2°36.912 8.5 25 19.4 101390 83
2005-06-24 08:44:10 51°11.443 2°36.928 8.6 26 19.4 101390 83
2005-06-24 08:44:15 51°11.454 2°36.942 8.7 25 19.4 101390 83
2005-06-24 08:44:20 51°11.469 2°36.959 8.8 26 19.5 101390 83
2005-06-24 08:44:25 51°11.481 2°36.973 8.7 25 19.5 101390 83
2005-06-24 08:44:30 51°11.494 2°36.988 8.7 26 19.5 101390 83
2005-06-24 08:44:35 51°11.509 2°37.005 8.7 25 19.5 101390 83
2005-06-24 08:44:39 51°11.519 2°37.017 8.7 25 19.5 101390 83
2005-06-24 08:44:45 51°11.535 2°37.035 8.7 25 19.5 101390 83
2005-06-24 08:44:49 51°11.546 2°37.047 8.6 25 19.4 101390 83
2005-06-24 08:44:55 51°11.561 2°37.063 8.8 25 19.4 101390 83
2005-06-24 08:44:59 51°11.571 2°37.076 8.9 25 19.4 101390 83
2005-06-24 08:45:05 51°11.589 2°37.095 8.7 25 19.4 101390 83
2005-06-24 08:45:09 51°11.599 2°37.107 8.9 24 19.4 101390 84
2005-06-24 08:45:15 51°11.616 2°37.125 8.9 24 19.4 101390 84
2005-06-24 08:45:20 51°11.629 2°37.139 8.7 25 19.5 101390 84
2005-06-24 08:45:25 51°11.642 2°37.154 8.5 25 19.5 101390 84
2005-06-24 08:45:30 51°11.655 2°37.167 8.7 25 19.4 101390 84
2005-06-24 08:45:35 51°11.669 2°37.184 8.6 25 19.4 101390 84
2005-06-24 08:45:39 51°11.679 2°37.194 8.8 25 19.4 101390 84
2005-06-24 08:45:45 51°11.696 2°37.212 9.1 25 19.4 101390 84
2005-06-24 08:45:50 51°11.71 2°37.226 8.7 25 19.4 101390 84
2005-06-24 08:45:55 51°11.724 2°37.241 8.8 26 19.4 101390 84
2005-06-24 08:45:59 51°11.735 2°37.252 8.9 26 19.4 101390 84
2005-06-24 08:46:05 51°11.751 2°37.269 8.8 26 19.4 101390 84
2005-06-24 08:46:10 51°11.765 2°37.283 8.8 25 19.4 101390 84
2005-06-24 08:46:15 51°11.777 2°37.296 8.7 26 19.4 101390 84
2005-06-24 08:46:20 51°11.792 2°37.312 8.8 27 19.4 101390 84
2005-06-24 08:46:25 51°11.804 2°37.325 8.9 25 19.4 101390 84
2005-06-24 08:46:30 51°11.818 2°37.339 8.8 26 19.4 101390 84
2005-06-24 08:46:35 51°11.833 2°37.355 8.9 26 19.4 101390 84
2005-06-24 08:46:39 51°11.844 2°37.367 9.2 26 19.4 101390 84
2005-06-24 08:46:45 51°11.86 2°37.384 8.8 26 19.4 101390 84
2005-06-24 08:46:49 51°11.871 2°37.395 8.7 27 19.4 101380 84
2005-06-24 08:46:55 51°11.886 2°37.411 8.8 26 19.4 101380 84
2005-06-24 08:46:59 51°11.897 2°37.423 9.1 26 19.4 101380 84
2005-06-24 08:47:05 51°11.914 2°37.441 8.8 26 19.4 101380 84
2005-06-24 08:47:09 51°11.925 2°37.453 9 26 19.4 101380 84
2005-06-24 08:47:15 51°11.942 2°37.47 8.9 26 19.4 101380 84
2005-06-24 08:47:20 51°11.955 2°37.484 9 26 19.4 101380 84
2005-06-24 08:47:25 51°11.969 2°37.498 8.9 25 19.4 101380 84
2005-06-24 08:47:30 51°11.981 2°37.511 9.1 26 19.4 101380 84
2005-06-24 08:47:35 51°11.996 2°37.527 9 25 19.4 101380 84
2005-06-24 08:47:39 51°12.006 2°37.537 9 26 19.4 101380 84
2005-06-24 08:47:45 51°12.024 2°37.555 8.7 25 19.4 101380 84
2005-06-24 08:47:50 51°12.037 2°37.569 9.1 25 19.4 101380 84
2005-06-24 08:47:55 51°12.051 2°37.584 9 25 19.4 101380 84
2005-06-24 08:47:59 51°12.062 2°37.596 8.8 25 19.4 101380 84
2005-06-24 08:48:05 51°12.078 2°37.613 9 26 19.4 101380 84
2005-06-24 08:48:10 51°12.091 2°37.627 9.1 26 19.4 101380 84
2005-06-24 08:48:15 51°12.104 2°37.641 9.1 26 19.4 101380 84
2005-06-24 08:48:20 51°12.118 2°37.657 8.8 26 19.4 101380 84
2005-06-24 08:48:25 51°12.13 2°37.67 8.8 27 19.4 101380 84
2005-06-24 08:48:30 51°12.144 2°37.684 8.7 26 19.4 101380 84
2005-06-24 08:48:35 51°12.159 2°37.7 8.8 27 19.4 101380 84
2005-06-24 08:48:40 51°12.173 2°37.714 8.7 27 19.4 101380 84
2005-06-24 08:48:45 51°12.185 2°37.727 8.8 27 19.4 101380 84
2005-06-24 08:48:50 51°12.198 2°37.742 8.9 27 19.4 101380 84
2005-06-24 08:48:55 51°12.212 2°37.757 8.7 27 19.4 101380 84
2005-06-24 08:48:59 51°12.224 2°37.77 8.9 27 19.4 101380 84
2005-06-24 08:49:05 51°12.24 2°37.787 8.7 27 19.4 101380 84
2005-06-24 08:49:09 51°12.251 2°37.798 8.9 27 19.4 101380 85
2005-06-24 08:49:15 51°12.266 2°37.814 8.7 27 19.4 101380 85
2005-06-24 08:49:20 51°12.281 2°37.829 8.6 27 19.4 101380 85
2005-06-24 08:49:25 51°12.295 2°37.843 8.6 26 19.4 101380 85
2005-06-24 08:49:30 51°12.307 2°37.856 8.7 27 19.4 101380 85
2005-06-24 08:49:35 51°12.321 2°37.87 8.7 27 19.4 101380 85
2005-06-24 08:49:40 51°12.336 2°37.886 8.9 25 19.4 101380 85
2005-06-24 08:49:45 51°12.349 2°37.901 8.8 26 19.4 101380 85
2005-06-24 08:49:49 51°12.36 2°37.912 8.8 26 19.3 101380 85
2005-06-24 08:49:55 51°12.376 2°37.929 9.1 26 19.3 101380 85
2005-06-24 08:50:00 51°12.39 2°37.943 9.1 26 19.3 101380 85
2005-06-24 08:50:05 51°12.403 2°37.958 8.8 26 19.3 101380 85
2005-06-24 08:50:10 51°12.417 2°37.972 8.9 27 19.3 101380 85
2005-06-24 08:50:15 51°12.429 2°37.985 8.8 26 19.3 101380 85
2005-06-24 08:50:20 51°12.444 2°38.001 8.9 26 19.3 101380 85
2005-06-24 08:50:25 51°12.457 2°38.015 8.9 26 19.3 101380 85
2005-06-24 08:50:29 51°12.468 2°38.027 9.2 26 19.3 101380 85
2005-06-24 08:50:35 51°12.483 2°38.042 8.9 26 19.3 101380 85
2005-06-24 08:50:40 51°12.498 2°38.058 9 26 19.3 101380 85
2005-06-24 08:50:45 51°12.511 2°38.072 9 26 19.3 101380 85
2005-06-24 08:50:49 51°12.522 2°38.083 9.1 26 19.3 101380 85
2005-06-24 08:50:54 51°12.535 2°38.096 8.8 26 19.3 101380 85
2005-06-24 08:51:00 51°12.552 2°38.114 9 25 19.3 101370 85
2005-06-24 08:51:05 51°12.566 2°38.128 9.2 26 19.3 101370 85
2005-06-24 08:51:10 51°12.578 2°38.14 9.2 26 19.3 101380 85
2005-06-24 08:51:15 51°12.592 2°38.155 9.3 25 19.3 101380 85
2005-06-24 08:51:19 51°12.604 2°38.167 9 26 19.3 101370 85
2005-06-24 08:51:25 51°12.621 2°38.184 9.5 26 19.3 101370 85
2005-06-24 08:51:30 51°12.634 2°38.198 9.2 26 19.3 101380 85
2005-06-24 08:51:35 51°12.648 2°38.212 9.2 26 19.3 101380 85
2005-06-24 08:51:39 51°12.657 2°38.222 9.2 26 19.3 101380 85
2005-06-24 08:51:46 51°12.676 2°38.241 9.1 26 19.3 101380 85
2005-06-24 08:51:50 51°12.689 2°38.254 9 26 19.3 101370 85
2005-06-24 08:51:55 51°12.702 2°38.268 9.2 26 19.3 101370 85
2005-06-24 08:52:00 51°12.716 2°38.282 9.1 26 19.3 101380 85
2005-06-24 08:52:05 51°12.729 2°38.296 9.2 25 19.3 101380 85
2005-06-24 08:52:10 51°12.743 2°38.31 9.1 25 19.3 101370 85
2005-06-24 08:52:15 51°12.757 2°38.324 9 25 19.3 101370 85
2005-06-24 08:52:20 51°12.77 2°38.338 9.2 25 19.3 101380 85
2005-06-24 08:52:25 51°12.784 2°38.352 9 26 19.3 101380 85
2005-06-24 08:52:30 51°12.797 2°38.366 9.1 25 19.3 101370 85
2005-06-24 08:52:35 51°12.81 2°38.379 9.1 26 19.3 101370 85
2005-06-24 08:52:40 51°12.825 2°38.394 9 26 19.3 101370 85
2005-06-24 08:52:45 51°12.838 2°38.409 9.1 26 19.3 101370 85
2005-06-24 08:52:50 51°12.851 2°38.423 9 27 19.3 101370 85
2005-06-24 08:52:55 51°12.865 2°38.438 9.1 27 19.3 101370 85
2005-06-24 08:52:59 51°12.876 2°38.449 8.9 27 19.3 101380 85
2005-06-24 08:53:05 51°12.892 2°38.466 9.1 26 19.3 101380 85
2005-06-24 08:53:10 51°12.906 2°38.481 9 27 19.3 101370 85
2005-06-24 08:53:15 51°12.918 2°38.493 8.9 27 19.3 101370 85
2005-06-24 08:53:19 51°12.93 2°38.506 8.9 27 19.3 101370 85
2005-06-24 08:53:25 51°12.947 2°38.521 8.9 29 19.3 101370 85
2005-06-24 08:53:29 51°12.959 2°38.531 8.9 29 19.3 101380 85
2005-06-24 08:53:35 51°12.975 2°38.544 8.9 29 19.3 101380 85
2005-06-24 08:53:39 51°12.987 2°38.553 8.6 28 19.3 101370 85
2005-06-24 08:53:45 51°13.006 2°38.566 8.6 29 19.3 101370 85
2005-06-24 08:53:50 51°13.021 2°38.576 8.5 30 19.3 101380 85
2005-06-24 08:53:55 51°13.035 2°38.584 8.7 29 19.3 101380 85